Time,TemperatureF,DewpointF,PressureIn,WindDirection,WindDirectionDegrees,WindSpeedMPH,WindSpeedGustMPH,Humidity,HourlyPrecipIn,Conditions,Clouds,dailyrainin,SoftwareType,DateUTC
2013-08-21 00:00:00,66.2,63.2,30.10,SSE,148,0.0,0.0,90,0.00,,BKN011,0.00,VWS V14.01,2013-08-21 04:00:00,
2013-08-21 00:01:00,66.2,63.2,30.10,SSE,148,0.0,0.0,90,0.00,,CLR,0.00,VWS V14.01,2013-08-21 04:01:00,
2013-08-21 00:06:00,66.2,63.5,30.10,SSE,148,0.0,0.0,91,0.00,,CLR,0.00,VWS V14.01,2013-08-21 04:06:00,
2013-08-21 00:10:00,66.2,63.5,30.10,SE,140,0.0,0.0,91,0.00,,BKN011,0.00,VWS V14.01,2013-08-21 04:10:00,
2013-08-21 00:11:00,66.1,63.1,30.10,SE,140,0.0,0.0,90,0.00,,CLR,0.00,VWS V14.01,2013-08-21 04:11:00,
2013-08-21 00:16:00,66.1,63.4,30.10,SE,139,0.0,0.0,91,0.00,,CLR,0.00,VWS V14.01,2013-08-21 04:16:00,
2013-08-21 00:20:00,66.0,63.3,30.10,SE,140,0.0,0.0,91,0.00,,BKN011,0.00,VWS V14.01,2013-08-21 04:20:00,
2013-08-21 00:21:00,66.0,63.0,30.10,SE,139,0.0,0.0,90,0.00,,CLR,0.00,VWS V14.01,2013-08-21 04:21:00,
2013-08-21 00:26:00,65.9,63.2,30.11,NNW,330,0.0,1.0,91,0.00,,CLR,0.00,VWS V14.01,2013-08-21 04:26:00,
2013-08-21 00:30:00,66.1,63.4,30.10,NNW,330,0.0,1.0,91,0.00,,BKN011,0.00,VWS V14.01,2013-08-21 04:30:00,
2013-08-21 00:31:00,66.1,63.4,30.10,NNW,331,0.0,0.0,91,0.00,,CLR,0.00,VWS V14.01,2013-08-21 04:31:00,
2013-08-21 00:36:00,66.3,63.3,30.11,NNW,332,0.0,1.0,90,0.00,,CLR,0.00,VWS V14.01,2013-08-21 04:36:00,
2013-08-21 00:40:00,66.4,63.4,30.10,NNW,331,0.0,1.0,90,0.00,,BKN011,0.00,VWS V14.01,2013-08-21 04:40:00,
2013-08-21 00:41:00,66.3,63.3,30.10,NNW,331,0.0,0.0,90,0.00,,CLR,0.00,VWS V14.01,2013-08-21 04:41:00,
2013-08-21 00:46:00,66.3,63.3,30.10,NNW,331,0.0,0.0,90,0.00,,CLR,0.00,VWS V14.01,2013-08-21 04:46:00,
2013-08-21 00:50:00,66.3,63.3,30.10,NNW,331,0.0,0.0,90,0.00,,BKN011,0.00,VWS V14.01,2013-08-21 04:50:00,
2013-08-21 00:51:00,66.2,63.2,30.10,NNW,332,0.0,0.0,90,0.00,,CLR,0.00,VWS V14.01,2013-08-21 04:51:00,
2013-08-21 00:56:00,66.1,63.1,30.11,NW,322,0.0,0.0,90,0.00,,CLR,0.00,VWS V14.01,2013-08-21 04:56:00,
2013-08-21 01:00:00,65.9,62.9,30.11,NW,322,0.0,0.0,90,0.00,,BKN011,0.00,VWS V14.01,2013-08-21 05:00:00,
2013-08-21 01:01:00,65.9,63.2,30.11,NW,322,0.0,0.0,91,0.00,,CLR,0.00,VWS V14.01,2013-08-21 05:01:00,
2013-08-21 01:06:00,66.0,63.3,30.10,NW,322,0.0,0.0,91,0.00,,CLR,0.00,VWS V14.01,2013-08-21 05:06:00,
2013-08-21 01:10:00,66.0,63.3,30.10,NW,322,0.0,0.0,91,0.00,,BKN011,0.00,VWS V14.01,2013-08-21 05:10:00,
2013-08-21 01:11:00,66.1,63.4,30.11,NW,321,0.0,0.0,91,0.00,,CLR,0.00,VWS V14.01,2013-08-21 05:11:00,
2013-08-21 01:16:00,66.1,63.1,30.10,NW,321,0.0,0.0,90,0.00,,CLR,0.00,VWS V14.01,2013-08-21 05:16:00,
2013-08-21 01:20:00,66.0,63.0,30.10,NW,321,0.0,0.0,90,0.00,,BKN011,0.00,VWS V14.01,2013-08-21 05:20:00,
2013-08-21 01:21:00,66.0,63.0,30.10,NW,322,0.0,0.0,90,0.00,,CLR,0.00,VWS V14.01,2013-08-21 05:21:00,
2013-08-21 01:26:00,66.0,63.3,30.10,NW,321,0.0,0.0,91,0.00,,CLR,0.00,VWS V14.01,2013-08-21 05:26:00,
2013-08-21 01:30:00,66.1,63.4,30.10,NW,326,0.0,0.0,91,0.00,,BKN011,0.00,VWS V14.01,2013-08-21 05:30:00,
2013-08-21 01:31:00,66.2,63.2,30.10,NW,326,0.0,0.0,90,0.00,,CLR,0.00,VWS V14.01,2013-08-21 05:31:00,
2013-08-21 01:36:00,66.6,63.6,30.10,NW,316,0.0,1.0,90,0.00,,CLR,0.00,VWS V14.01,2013-08-21 05:36:00,
2013-08-21 01:40:00,66.8,63.5,30.10,NW,316,0.0,1.0,89,0.00,,BKN011,0.00,VWS V14.01,2013-08-21 05:40:00,
2013-08-21 01:41:00,66.8,63.5,30.10,NW,316,1.0,1.0,89,0.00,,CLR,0.00,VWS V14.01,2013-08-21 05:41:00,
2013-08-21 01:46:00,67.0,63.7,30.10,NW,314,0.0,2.0,89,0.00,,CLR,0.00,VWS V14.01,2013-08-21 05:46:00,
2013-08-21 01:50:00,67.2,63.8,30.10,NW,314,0.0,2.0,89,0.00,,BKN011,0.00,VWS V14.01,2013-08-21 05:50:00,
2013-08-21 01:51:00,67.2,63.8,30.10,NW,314,0.0,0.0,89,0.00,,CLR,0.00,VWS V14.01,2013-08-21 05:51:00,
2013-08-21 01:56:00,67.2,63.5,30.10,NW,314,0.0,0.0,88,0.00,,CLR,0.00,VWS V14.01,2013-08-21 05:56:00,
2013-08-21 02:00:00,67.1,63.4,30.10,NW,315,0.0,0.0,88,0.00,,BKN011,0.00,VWS V14.01,2013-08-21 06:00:00,
2013-08-21 02:01:00,67.1,63.4,30.10,NW,314,0.0,0.0,88,0.00,,CLR,0.00,VWS V14.01,2013-08-21 06:01:00,
2013-08-21 02:06:00,66.9,63.6,30.11,NW,314,0.0,0.0,89,0.00,,CLR,0.00,VWS V14.01,2013-08-21 06:06:00,
2013-08-21 02:10:00,66.7,63.4,30.11,NW,314,0.0,0.0,89,0.00,,BKN011,0.00,VWS V14.01,2013-08-21 06:10:00,
2013-08-21 02:11:00,66.7,63.4,30.11,NW,314,0.0,0.0,89,0.00,,CLR,0.00,VWS V14.01,2013-08-21 06:11:00,
2013-08-21 02:16:00,66.5,63.2,30.11,NW,314,0.0,0.0,89,0.00,,CLR,0.00,VWS V14.01,2013-08-21 06:16:00,
2013-08-21 02:20:00,66.3,63.0,30.11,NW,315,0.0,0.0,89,0.00,,BKN011,0.00,VWS V14.01,2013-08-21 06:20:00,
2013-08-21 02:21:00,66.2,62.9,30.10,NW,314,0.0,0.0,89,0.00,,CLR,0.00,VWS V14.01,2013-08-21 06:21:00,
2013-08-21 02:26:00,65.8,62.8,30.10,NW,314,0.0,0.0,90,0.00,,CLR,0.00,VWS V14.01,2013-08-21 06:26:00,
2013-08-21 02:30:00,65.7,62.7,30.10,NW,314,0.0,0.0,90,0.00,,BKN011,0.00,VWS V14.01,2013-08-21 06:30:00,
2013-08-21 02:31:00,65.6,62.9,30.11,NW,315,0.0,0.0,91,0.00,,CLR,0.00,VWS V14.01,2013-08-21 06:31:00,
2013-08-21 02:36:00,65.4,62.7,30.11,NW,326,0.0,0.0,91,0.00,,CLR,0.00,VWS V14.01,2013-08-21 06:36:00,
2013-08-21 02:40:00,65.3,62.6,30.11,NW,326,0.0,0.0,91,0.00,,BKN011,0.00,VWS V14.01,2013-08-21 06:40:00,
2013-08-21 02:41:00,65.2,62.5,30.11,NW,326,0.0,0.0,91,0.00,,CLR,0.00,VWS V14.01,2013-08-21 06:41:00,
2013-08-21 02:46:00,65.2,62.8,30.11,NW,326,0.0,0.0,92,0.00,,CLR,0.00,VWS V14.01,2013-08-21 06:46:00,
2013-08-21 02:50:00,65.2,62.8,30.11,NW,326,0.0,0.0,92,0.00,,BKN011,0.00,VWS V14.01,2013-08-21 06:50:00,
2013-08-21 02:51:00,65.2,62.8,30.11,NW,326,0.0,0.0,92,0.00,,CLR,0.00,VWS V14.01,2013-08-21 06:51:00,
2013-08-21 02:56:00,65.1,62.7,30.11,NW,326,0.0,0.0,92,0.00,,CLR,0.00,VWS V14.01,2013-08-21 06:56:00,
2013-08-21 03:00:00,65.1,62.7,30.11,NW,326,0.0,0.0,92,0.00,,BKN011,0.00,VWS V14.01,2013-08-21 07:00:00,
2013-08-21 03:01:00,65.1,62.7,30.11,NW,326,0.0,0.0,92,0.00,,,0.00,VWS V14.01,2013-08-21 07:01:00,
2013-08-21 03:06:00,65.1,62.4,30.11,NW,326,0.0,0.0,91,0.00,,,0.00,VWS V14.01,2013-08-21 07:06:00,
2013-08-21 03:10:00,65.0,62.3,30.11,NW,326,0.0,0.0,91,0.00,,BKN011,0.00,VWS V14.01,2013-08-21 07:10:00,
2013-08-21 03:11:00,65.0,62.3,30.11,NW,326,0.0,0.0,91,0.00,,,0.00,VWS V14.01,2013-08-21 07:11:00,
2013-08-21 03:16:00,65.0,62.6,30.11,NW,326,0.0,0.0,92,0.00,,,0.00,VWS V14.01,2013-08-21 07:16:00,
2013-08-21 03:20:00,65.1,62.7,30.11,NW,326,0.0,0.0,92,0.00,,BKN011,0.00,VWS V14.01,2013-08-21 07:20:00,
2013-08-21 03:21:00,65.1,62.7,30.11,NW,326,0.0,0.0,92,0.00,,,0.00,VWS V14.01,2013-08-21 07:21:00,
2013-08-21 03:26:00,65.0,62.3,30.11,NNW,327,0.0,1.0,91,0.00,,,0.00,VWS V14.01,2013-08-21 07:26:00,
2013-08-21 03:30:00,65.1,62.7,30.11,NNW,329,0.0,1.0,92,0.00,,BKN011,0.00,VWS V14.01,2013-08-21 07:30:00,
2013-08-21 03:31:00,65.1,62.7,30.11,NNW,329,0.0,1.0,92,0.00,,,0.00,VWS V14.01,2013-08-21 07:31:00,
2013-08-21 03:36:00,65.2,62.5,30.11,NNW,328,0.0,1.0,91,0.00,,,0.00,VWS V14.01,2013-08-21 07:36:00,
2013-08-21 03:40:00,65.0,62.3,30.11,NNW,328,0.0,1.0,91,0.00,,BKN011,0.00,VWS V14.01,2013-08-21 07:40:00,
2013-08-21 03:41:00,64.9,62.2,30.11,NNW,327,0.0,0.0,91,0.00,,,0.00,VWS V14.01,2013-08-21 07:41:00,
2013-08-21 03:46:00,64.6,61.9,30.11,NNW,329,0.0,0.0,91,0.00,,,0.00,VWS V14.01,2013-08-21 07:46:00,
2013-08-21 03:50:00,64.3,61.6,30.11,NNW,329,0.0,0.0,91,0.00,,BKN011,0.00,VWS V14.01,2013-08-21 07:50:00,
2013-08-21 03:51:00,64.2,61.5,30.11,NNW,329,0.0,0.0,91,0.00,,,0.00,VWS V14.01,2013-08-21 07:51:00,
2013-08-21 03:56:00,63.9,61.5,30.11,NNW,329,0.0,0.0,92,0.00,,,0.00,VWS V14.01,2013-08-21 07:56:00,
2013-08-21 04:00:00,63.6,61.2,30.11,NNW,329,0.0,0.0,92,0.00,,BKN011,0.00,VWS V14.01,2013-08-21 08:00:00,
2013-08-21 04:01:00,63.6,61.2,30.11,NNW,329,0.0,0.0,92,0.00,,,0.00,VWS V14.01,2013-08-21 08:01:00,
2013-08-21 04:06:00,63.3,61.2,30.11,NNW,329,0.0,0.0,93,0.00,,,0.00,VWS V14.01,2013-08-21 08:06:00,
2013-08-21 04:10:00,63.2,61.2,30.11,NNW,329,0.0,0.0,93,0.00,,BKN011,0.00,VWS V14.01,2013-08-21 08:10:00,
2013-08-21 04:11:00,63.2,61.2,30.11,NNW,329,0.0,0.0,93,0.00,,,0.00,VWS V14.01,2013-08-21 08:11:00,
2013-08-21 04:16:00,63.1,61.0,30.11,NNW,329,0.0,0.0,93,0.00,,,0.00,VWS V14.01,2013-08-21 08:16:00,
2013-08-21 04:20:00,63.0,61.0,30.11,NNW,329,0.0,0.0,93,0.00,,BKN011,0.00,VWS V14.01,2013-08-21 08:20:00,
2013-08-21 04:21:00,62.9,60.8,30.11,NNW,329,0.0,0.0,93,0.00,,,0.00,VWS V14.01,2013-08-21 08:21:00,
2013-08-21 04:26:00,62.8,61.0,30.11,NNW,329,0.0,0.0,94,0.00,,,0.00,VWS V14.01,2013-08-21 08:26:00,
2013-08-21 04:30:00,62.7,61.0,30.11,NNW,329,0.0,0.0,94,0.00,,BKN011,0.00,VWS V14.01,2013-08-21 08:30:00,
2013-08-21 04:31:00,62.6,60.8,30.11,NNW,329,0.0,0.0,94,0.00,,,0.00,VWS V14.01,2013-08-21 08:31:00,
2013-08-21 04:36:00,62.5,60.8,30.11,NNW,328,0.0,0.0,94,0.00,,,0.00,VWS V14.01,2013-08-21 08:36:00,
2013-08-21 04:40:00,62.6,61.2,30.12,NNW,329,0.0,0.0,95,0.00,,BKN011,0.00,VWS V14.01,2013-08-21 08:40:00,
2013-08-21 04:41:00,62.6,60.8,30.12,NNW,329,0.0,0.0,94,0.00,,,0.00,VWS V14.01,2013-08-21 08:41:00,
2013-08-21 04:46:00,62.6,60.8,30.12,NNE,22,0.0,1.0,94,0.00,,,0.00,VWS V14.01,2013-08-21 08:46:00,
2013-08-21 04:50:00,62.6,60.8,30.12,NNE,22,0.0,1.0,94,0.00,,BKN011,0.00,VWS V14.01,2013-08-21 08:50:00,
2013-08-21 04:51:00,62.6,61.2,30.12,NNE,22,0.0,0.0,95,0.00,,,0.00,VWS V14.01,2013-08-21 08:51:00,
2013-08-21 04:55:00,62.5,60.8,30.12,NNE,22,0.0,0.0,94,0.00,,,0.00,VWS V14.01,2013-08-21 08:55:00,
2013-08-21 05:00:00,62.5,60.8,30.12,NNE,22,0.0,0.0,94,0.00,,,0.00,VWS V14.01,2013-08-21 09:00:00,
2013-08-21 05:05:00,62.4,60.7,30.12,NNE,22,0.0,0.0,94,0.00,,,0.00,VWS V14.01,2013-08-21 09:05:00,
2013-08-21 05:10:00,62.4,61.0,30.12,NNE,22,0.0,0.0,95,0.00,,,0.00,VWS V14.01,2013-08-21 09:10:00,
2013-08-21 05:15:00,62.6,61.2,30.12,NNE,22,0.0,0.0,95,0.00,,,0.00,VWS V14.01,2013-08-21 09:15:00,
2013-08-21 05:20:00,63.0,61.5,30.12,North,11,0.0,0.0,95,0.00,,,0.00,VWS V14.01,2013-08-21 09:20:00,
2013-08-21 05:25:00,63.1,61.7,30.12,North,11,0.0,0.0,95,0.00,,,0.00,VWS V14.01,2013-08-21 09:25:00,
2013-08-21 05:30:00,63.0,61.2,30.12,North,11,0.0,0.0,94,0.00,,,0.00,VWS V14.01,2013-08-21 09:30:00,
2013-08-21 05:35:00,63.1,61.3,30.12,North,11,0.0,0.0,94,0.00,,,0.00,VWS V14.01,2013-08-21 09:35:00,
2013-08-21 05:40:00,63.4,62.0,30.13,North,11,0.0,0.0,95,0.00,,,0.00,VWS V14.01,2013-08-21 09:40:00,
2013-08-21 05:45:00,63.5,61.8,30.13,North,11,0.0,0.0,94,0.00,,,0.00,VWS V14.01,2013-08-21 09:45:00,
2013-08-21 05:50:00,63.7,62.2,30.13,North,11,0.0,0.0,95,0.00,,,0.00,VWS V14.01,2013-08-21 09:50:00,
2013-08-21 05:55:00,63.7,62.0,30.13,North,11,0.0,0.0,94,0.00,,,0.00,VWS V14.01,2013-08-21 09:55:00,
2013-08-21 06:00:00,63.6,61.8,30.13,North,11,0.0,0.0,94,0.00,,,0.00,VWS V14.01,2013-08-21 10:00:00,
2013-08-21 06:05:00,63.4,61.3,30.13,North,11,0.0,0.0,93,0.00,,,0.00,VWS V14.01,2013-08-21 10:05:00,
2013-08-21 06:10:00,63.1,61.0,30.13,North,11,0.0,0.0,93,0.00,,,0.00,VWS V14.01,2013-08-21 10:10:00,
2013-08-21 06:15:00,62.9,60.8,30.13,North,11,0.0,0.0,93,0.00,,,0.00,VWS V14.01,2013-08-21 10:15:00,
2013-08-21 06:20:00,62.6,60.5,30.13,North,11,0.0,0.0,93,0.00,,,0.00,VWS V14.01,2013-08-21 10:20:00,
2013-08-21 06:25:00,62.5,60.8,30.13,North,11,0.0,0.0,94,0.00,,,0.00,VWS V14.01,2013-08-21 10:25:00,
2013-08-21 06:30:00,62.5,60.8,30.13,North,11,0.0,0.0,94,0.00,,CLR,0.00,VWS V14.01,2013-08-21 10:30:00,
2013-08-21 06:35:00,62.6,60.8,30.14,North,11,0.0,0.0,94,0.00,,CLR,0.00,VWS V14.01,2013-08-21 10:35:00,
2013-08-21 06:40:00,62.6,60.8,30.14,North,11,0.0,0.0,94,0.00,,CLR,0.00,VWS V14.01,2013-08-21 10:40:00,
2013-08-21 06:45:00,62.8,61.0,30.14,North,11,0.0,0.0,94,0.00,,CLR,0.00,VWS V14.01,2013-08-21 10:45:00,
2013-08-21 06:50:00,63.0,61.5,30.14,North,11,0.0,0.0,95,0.00,,CLR,0.00,VWS V14.01,2013-08-21 10:50:00,
2013-08-21 06:55:00,63.4,62.0,30.14,North,11,0.0,0.0,95,0.00,,CLR,0.00,VWS V14.01,2013-08-21 10:55:00,
2013-08-21 07:00:00,63.8,62.3,30.14,North,11,0.0,0.0,95,0.00,,CLR,0.00,VWS V14.01,2013-08-21 11:00:00,
2013-08-21 07:05:00,64.2,62.7,30.14,North,11,0.0,0.0,95,0.00,,CLR,0.00,VWS V14.01,2013-08-21 11:05:00,
2013-08-21 07:10:00,64.5,63.0,30.14,North,11,0.0,0.0,95,0.00,,CLR,0.00,VWS V14.01,2013-08-21 11:10:00,
2013-08-21 07:15:00,65.0,63.5,30.14,North,11,0.0,0.0,95,0.00,,CLR,0.00,VWS V14.01,2013-08-21 11:15:00,
2013-08-21 07:20:00,65.7,63.9,30.14,North,11,0.0,0.0,94,0.00,,CLR,0.00,VWS V14.01,2013-08-21 11:20:00,
2013-08-21 07:25:00,66.4,64.3,30.15,NW,307,0.0,1.0,93,0.00,,CLR,0.00,VWS V14.01,2013-08-21 11:25:00,
2013-08-21 07:30:00,67.2,64.5,30.14,NW,306,0.0,0.0,91,0.00,,CLR,0.00,VWS V14.01,2013-08-21 11:30:00,
2013-08-21 07:35:00,67.9,64.9,30.15,WSW,252,0.0,1.0,90,0.00,,CLR,0.00,VWS V14.01,2013-08-21 11:35:00,
2013-08-21 07:40:00,68.6,64.9,30.15,WSW,256,2.0,2.0,88,0.00,,CLR,0.00,VWS V14.01,2013-08-21 11:40:00,
2013-08-21 07:45:00,69.2,64.8,30.15,West,277,1.0,3.0,86,0.00,,CLR,0.00,VWS V14.01,2013-08-21 11:45:00,
2013-08-21 07:50:00,69.7,65.0,30.15,NNW,330,2.0,2.0,85,0.00,,CLR,0.00,VWS V14.01,2013-08-21 11:50:00,
2013-08-21 07:55:00,70.2,65.1,30.15,WNW,293,0.0,3.0,84,0.00,,CLR,0.00,VWS V14.01,2013-08-21 11:55:00,
2013-08-21 08:00:00,70.7,65.3,30.15,WNW,285,0.0,0.0,83,0.00,,CLR,0.00,VWS V14.01,2013-08-21 12:00:00,
2013-08-21 08:05:00,71.1,65.7,30.15,WSW,252,2.0,2.0,83,0.00,,CLR,0.00,VWS V14.01,2013-08-21 12:05:00,
2013-08-21 08:10:00,71.4,65.3,30.15,West,267,1.0,2.0,81,0.00,,CLR,0.00,VWS V14.01,2013-08-21 12:10:00,
2013-08-21 08:15:00,71.8,65.3,30.15,NW,305,1.0,3.0,80,0.00,,CLR,0.00,VWS V14.01,2013-08-21 12:15:00,
2013-08-21 08:20:00,72.3,65.1,30.15,West,280,1.0,3.0,78,0.00,,CLR,0.00,VWS V14.01,2013-08-21 12:20:00,
2013-08-21 08:25:00,72.7,65.1,30.15,West,263,2.0,3.0,77,0.00,,CLR,0.00,VWS V14.01,2013-08-21 12:25:00,
2013-08-21 08:30:00,73.1,65.1,30.15,West,270,1.0,2.0,76,0.00,,CLR,0.00,VWS V14.01,2013-08-21 12:30:00,
2013-08-21 08:35:00,73.5,65.5,30.15,West,281,2.0,4.0,76,0.00,,CLR,0.00,VWS V14.01,2013-08-21 12:35:00,
2013-08-21 08:40:00,74.0,65.6,30.15,WNW,285,3.0,4.0,75,0.00,,CLR,0.00,VWS V14.01,2013-08-21 12:40:00,
2013-08-21 08:45:00,74.2,65.4,30.14,WSW,252,3.0,4.0,74,0.00,,CLR,0.00,VWS V14.01,2013-08-21 12:45:00,
2013-08-21 08:50:00,74.5,65.3,30.14,West,271,1.0,1.0,73,0.00,,CLR,0.00,VWS V14.01,2013-08-21 12:50:00,
2013-08-21 08:55:00,74.9,65.7,30.14,West,274,2.0,3.0,73,0.00,,CLR,0.00,VWS V14.01,2013-08-21 12:55:00,
2013-08-21 09:00:00,75.3,65.7,30.15,WSW,245,2.0,3.0,72,0.00,,CLR,0.00,VWS V14.01,2013-08-21 13:00:00,
2013-08-21 09:05:00,75.8,65.7,30.15,West,269,3.0,5.0,71,0.00,,CLR,0.00,VWS V14.01,2013-08-21 13:05:00,
2013-08-21 09:10:00,75.9,65.8,30.15,West,281,0.0,1.0,71,0.00,,CLR,0.00,VWS V14.01,2013-08-21 13:10:00,
2013-08-21 09:15:00,76.4,65.9,30.15,West,271,1.0,2.0,70,0.00,,CLR,0.00,VWS V14.01,2013-08-21 13:15:00,
2013-08-21 09:20:00,77.2,66.2,30.15,WNW,295,2.0,2.0,69,0.00,,CLR,0.00,VWS V14.01,2013-08-21 13:20:00,
2013-08-21 09:25:00,77.7,66.3,30.15,SE,133,1.0,2.0,68,0.00,,CLR,0.00,VWS V14.01,2013-08-21 13:25:00,
2013-08-21 09:30:00,78.1,66.7,30.15,West,280,2.0,2.0,68,0.00,,CLR,0.00,VWS V14.01,2013-08-21 13:30:00,
2013-08-21 09:35:00,78.6,66.7,30.15,WNW,298,0.0,2.0,67,0.00,,CLR,0.00,VWS V14.01,2013-08-21 13:35:00,
2013-08-21 09:40:00,78.7,66.0,30.15,NNW,329,2.0,3.0,65,0.00,,CLR,0.00,VWS V14.01,2013-08-21 13:40:00,
2013-08-21 09:45:00,78.7,65.5,30.15,WNW,295,3.0,4.0,64,0.00,,CLR,0.00,VWS V14.01,2013-08-21 13:45:00,
2013-08-21 09:50:00,79.0,65.8,30.15,West,269,1.0,4.0,64,0.00,,CLR,0.00,VWS V14.01,2013-08-21 13:50:00,
2013-08-21 09:55:00,79.4,66.2,30.15,SW,216,1.0,4.0,64,0.00,,CLR,0.00,VWS V14.01,2013-08-21 13:55:00,
2013-08-21 10:00:00,79.9,65.7,30.15,SW,236,1.0,1.0,62,0.00,,CLR,0.00,VWS V14.01,2013-08-21 14:00:00,
2013-08-21 10:05:00,80.1,65.9,30.14,WNW,291,1.0,5.0,62,0.00,,CLR,0.00,VWS V14.01,2013-08-21 14:05:00,
2013-08-21 10:10:00,79.9,64.8,30.14,WNW,294,0.0,2.0,60,0.00,,CLR,0.00,VWS V14.01,2013-08-21 14:10:00,
2013-08-21 10:15:00,80.3,65.6,30.14,WSW,244,1.0,6.0,61,0.00,,CLR,0.00,VWS V14.01,2013-08-21 14:15:00,
2013-08-21 10:20:00,80.8,66.1,30.14,West,271,1.0,3.0,61,0.00,,CLR,0.00,VWS V14.01,2013-08-21 14:20:00,
2013-08-21 10:25:00,81.0,66.3,30.14,West,274,0.0,6.0,61,0.00,,CLR,0.00,VWS V14.01,2013-08-21 14:25:00,
2013-08-21 10:30:00,81.3,65.6,30.14,WNW,295,0.0,2.0,59,0.00,,CLR,0.00,VWS V14.01,2013-08-21 14:30:00,
2013-08-21 10:35:00,81.8,65.1,30.14,WNW,288,3.0,5.0,57,0.00,,CLR,0.00,VWS V14.01,2013-08-21 14:35:00,
2013-08-21 10:40:00,82.0,65.3,30.14,WSW,252,1.0,3.0,57,0.00,,CLR,0.00,VWS V14.01,2013-08-21 14:40:00,
2013-08-21 10:45:00,82.3,65.1,30.14,WSW,240,2.0,8.0,56,0.00,,CLR,0.00,VWS V14.01,2013-08-21 14:45:00,
2013-08-21 10:50:00,82.1,64.3,30.14,NW,309,6.0,7.0,55,0.00,,CLR,0.00,VWS V14.01,2013-08-21 14:50:00,
2013-08-21 10:55:00,81.9,68.1,30.14,SE,146,3.0,10.0,63,0.00,,CLR,0.00,VWS V14.01,2013-08-21 14:55:00,
2013-08-21 11:00:00,82.1,65.4,30.14,South,184,3.0,3.0,57,0.00,,CLR,0.00,VWS V14.01,2013-08-21 15:00:00,
2013-08-21 11:05:00,81.9,69.9,30.14,East,91,2.0,7.0,67,0.00,,CLR,0.00,VWS V14.01,2013-08-21 15:05:00,
2013-08-21 11:10:00,81.8,69.3,30.14,SSW,197,3.0,4.0,66,0.00,,CLR,0.00,VWS V14.01,2013-08-21 15:10:00,
2013-08-21 11:15:00,81.8,69.3,30.14,SSE,161,1.0,4.0,66,0.00,,CLR,0.00,VWS V14.01,2013-08-21 15:15:00,
2013-08-21 11:20:00,81.7,70.1,30.14,NW,324,2.0,2.0,68,0.00,,CLR,0.00,VWS V14.01,2013-08-21 15:20:00,
2013-08-21 11:25:00,82.2,67.4,30.13,SW,219,3.0,3.0,61,0.00,,CLR,0.00,VWS V14.01,2013-08-21 15:25:00,
2013-08-21 11:30:00,82.5,68.6,30.14,SSW,200,4.0,5.0,63,0.00,,CLR,0.00,VWS V14.01,2013-08-21 15:30:00,
2013-08-21 11:35:00,82.4,69.5,30.13,ENE,61,2.0,5.0,65,0.00,,CLR,0.00,VWS V14.01,2013-08-21 15:35:00,
2013-08-21 11:40:00,83.2,66.9,30.13,WNW,294,5.0,6.0,58,0.00,,CLR,0.00,VWS V14.01,2013-08-21 15:40:00,
2013-08-21 11:45:00,83.4,64.5,30.13,WSW,238,6.0,6.0,53,0.00,,CLR,0.00,VWS V14.01,2013-08-21 15:45:00,
2013-08-21 11:50:00,83.7,65.3,30.13,South,179,3.0,4.0,54,0.00,,CLR,0.00,VWS V14.01,2013-08-21 15:50:00,
2013-08-21 11:55:00,84.2,64.1,30.13,West,281,2.0,5.0,51,0.00,,CLR,0.00,VWS V14.01,2013-08-21 15:55:00,
2013-08-21 12:00:00,84.4,63.2,30.13,SW,216,5.0,5.0,49,0.00,,CLR,0.00,VWS V14.01,2013-08-21 16:00:00,
2013-08-21 12:05:00,84.2,62.4,30.13,West,260,3.0,6.0,48,0.00,,CLR,0.00,VWS V14.01,2013-08-21 16:05:00,
2013-08-21 12:10:00,84.5,63.3,30.13,NW,324,3.0,5.0,49,0.00,,CLR,0.00,VWS V14.01,2013-08-21 16:10:00,
2013-08-21 12:15:00,84.8,63.5,30.13,West,262,4.0,6.0,49,0.00,,CLR,0.00,VWS V14.01,2013-08-21 16:15:00,
2013-08-21 12:20:00,84.8,63.5,30.12,NW,312,2.0,4.0,49,0.00,,CLR,0.00,VWS V14.01,2013-08-21 16:20:00,
2013-08-21 12:25:00,84.8,63.0,30.13,West,280,2.0,10.0,48,0.00,,CLR,0.00,VWS V14.01,2013-08-21 16:25:00,
2013-08-21 12:30:00,85.1,63.2,30.12,WNW,294,3.0,4.0,48,0.00,,CLR,0.00,VWS V14.01,2013-08-21 16:30:00,
2013-08-21 12:35:00,85.6,63.1,30.12,West,269,4.0,7.0,47,0.00,,CLR,0.00,VWS V14.01,2013-08-21 16:35:00,
2013-08-21 12:40:00,85.4,63.5,30.12,West,281,3.0,3.0,48,0.00,,CLR,0.00,VWS V14.01,2013-08-21 16:40:00,
2013-08-21 12:45:00,85.4,62.9,30.12,West,277,5.0,7.0,47,0.00,,CLR,0.00,VWS V14.01,2013-08-21 16:45:00,
2013-08-21 12:50:00,85.4,62.9,30.12,SW,232,6.0,7.0,47,0.00,,CLR,0.00,VWS V14.01,2013-08-21 16:50:00,
2013-08-21 12:55:00,85.4,63.5,30.12,SW,225,4.0,9.0,48,0.00,,CLR,0.00,VWS V14.01,2013-08-21 16:55:00,
2013-08-21 13:00:00,85.2,62.7,30.12,West,278,3.0,3.0,47,0.00,,CLR,0.00,VWS V14.01,2013-08-21 17:00:00,
2013-08-21 13:05:00,85.2,62.1,30.12,WSW,253,7.0,9.0,46,0.00,,CLR,0.00,VWS V14.01,2013-08-21 17:05:00,
2013-08-21 13:10:00,85.2,62.1,30.12,SW,215,3.0,4.0,46,0.00,,CLR,0.00,VWS V14.01,2013-08-21 17:10:00,
2013-08-21 13:15:00,85.4,61.7,30.12,West,273,3.0,10.0,45,0.00,,CLR,0.00,VWS V14.01,2013-08-21 17:15:00,
2013-08-21 13:20:00,85.3,60.9,30.12,West,280,6.0,8.0,44,0.00,,CLR,0.00,VWS V14.01,2013-08-21 17:20:00,
2013-08-21 13:25:00,85.6,61.8,30.11,WSW,240,3.0,8.0,45,0.00,,CLR,0.00,VWS V14.01,2013-08-21 17:25:00,
2013-08-21 13:30:00,85.6,60.6,30.11,West,264,4.0,4.0,43,0.00,,CLR,0.00,VWS V14.01,2013-08-21 17:30:00,
2013-08-21 13:35:00,85.4,61.7,30.11,SSW,198,4.0,7.0,45,0.00,,CLR,0.00,VWS V14.01,2013-08-21 17:35:00,
2013-08-21 13:40:00,85.4,61.7,30.11,WNW,285,2.0,2.0,45,0.00,,CLR,0.00,VWS V14.01,2013-08-21 17:40:00,
2013-08-21 13:45:00,85.4,61.7,30.11,NW,311,7.0,10.0,45,0.00,,CLR,0.00,VWS V14.01,2013-08-21 17:45:00,
2013-08-21 13:50:00,85.9,61.5,30.11,WSW,253,5.0,5.0,44,0.00,,CLR,0.00,VWS V14.01,2013-08-21 17:50:00,
2013-08-21 13:55:00,86.0,61.6,30.11,West,264,0.0,8.0,44,0.00,,CLR,0.00,VWS V14.01,2013-08-21 17:55:00,
2013-08-21 14:00:00,86.2,61.8,30.10,West,277,2.0,4.0,44,0.00,,CLR,0.00,VWS V14.01,2013-08-21 18:00:00,
2013-08-21 14:05:00,86.3,66.1,30.10,SW,218,7.0,8.0,51,0.00,,CLR,0.00,VWS V14.01,2013-08-21 18:05:00,
2013-08-21 14:10:00,85.2,65.1,30.10,SW,235,6.0,6.0,51,0.00,,CLR,0.00,VWS V14.01,2013-08-21 18:10:00,
2013-08-21 14:15:00,84.9,67.5,30.10,SW,231,4.0,8.0,56,0.00,,CLR,0.00,VWS V14.01,2013-08-21 18:15:00,
2013-08-21 14:20:00,84.8,67.4,30.10,SSW,208,8.0,8.0,56,0.00,,CLR,0.00,VWS V14.01,2013-08-21 18:20:00,
2013-08-21 14:25:00,84.3,67.9,30.09,West,261,7.0,11.0,58,0.00,,CLR,0.00,VWS V14.01,2013-08-21 18:25:00,
2013-08-21 14:30:00,84.7,67.3,30.09,SSE,152,5.0,8.0,56,0.00,,CLR,0.00,VWS V14.01,2013-08-21 18:30:00,
2013-08-21 14:35:00,84.6,68.2,30.09,SW,232,5.0,10.0,58,0.00,,CLR,0.00,VWS V14.01,2013-08-21 18:35:00,
2013-08-21 14:40:00,84.5,67.6,30.09,South,180,8.0,10.0,57,0.00,,CLR,0.00,VWS V14.01,2013-08-21 18:40:00,
2013-08-21 14:45:00,84.4,67.0,30.09,WSW,253,5.0,12.0,56,0.00,,CLR,0.00,VWS V14.01,2013-08-21 18:45:00,
2013-08-21 14:50:00,84.2,67.3,30.09,SSW,195,10.0,10.0,57,0.00,,CLR,0.00,VWS V14.01,2013-08-21 18:50:00,
2013-08-21 14:55:00,84.2,66.3,30.09,SSW,207,10.0,11.0,55,0.00,,CLR,0.00,VWS V14.01,2013-08-21 18:55:00,
2013-08-21 15:00:00,83.9,66.5,30.09,West,260,5.0,6.0,56,0.00,,CLR,0.00,VWS V14.01,2013-08-21 19:00:00,
2013-08-21 15:05:00,83.9,66.5,30.09,SSW,207,7.0,13.0,56,0.00,,FEW050,0.00,VWS V14.01,2013-08-21 19:05:00,
2013-08-21 15:10:00,83.6,65.7,30.09,WSW,246,3.0,5.0,55,0.00,,FEW050,0.00,VWS V14.01,2013-08-21 19:10:00,
2013-08-21 15:15:00,83.9,66.5,30.09,SSW,195,5.0,8.0,56,0.00,,FEW050,0.00,VWS V14.01,2013-08-21 19:15:00,
2013-08-21 15:20:00,83.7,66.3,30.09,SSW,207,8.0,11.0,56,0.00,,FEW050,0.00,VWS V14.01,2013-08-21 19:20:00,
2013-08-21 15:25:00,83.6,66.3,30.09,South,191,6.0,12.0,56,0.00,,FEW050,0.00,VWS V14.01,2013-08-21 19:25:00,
2013-08-21 15:30:00,83.8,66.4,30.09,SSE,166,4.0,6.0,56,0.00,,FEW050,0.00,VWS V14.01,2013-08-21 19:30:00,
2013-08-21 15:35:00,83.7,65.3,30.09,SW,216,5.0,12.0,54,0.00,,FEW050,0.00,VWS V14.01,2013-08-21 19:35:00,
2013-08-21 15:40:00,83.6,64.7,30.09,SW,235,6.0,6.0,53,0.00,,FEW050,0.00,VWS V14.01,2013-08-21 19:40:00,
2013-08-21 15:45:00,83.5,64.6,30.09,SW,225,6.0,12.0,53,0.00,,FEW050,0.00,VWS V14.01,2013-08-21 19:45:00,
2013-08-21 15:49:00,83.5,64.0,30.09,SW,217,4.0,4.0,52,0.00,,FEW050,0.00,VWS V14.01,2013-08-21 19:49:00,
2013-08-21 15:50:00,83.5,64.0,30.09,SSW,211,4.0,13.0,52,0.00,,BKN011,0.00,VWS V14.01,2013-08-21 19:50:00,
2013-08-21 15:54:00,83.1,64.2,30.09,WSW,238,5.0,14.0,53,0.00,,FEW050,0.00,VWS V14.01,2013-08-21 19:54:00,
2013-08-21 15:59:00,83.5,65.1,30.08,SSW,203,2.0,2.0,54,0.00,,FEW050,0.00,VWS V14.01,2013-08-21 19:59:00,
2013-08-21 16:00:00,83.5,65.1,30.08,SW,228,2.0,14.0,54,0.00,,OVC038,0.00,VWS V14.01,2013-08-21 20:00:00,
2013-08-21 16:04:00,83.3,65.5,30.08,SSW,197,7.0,13.0,55,0.00,,CLR,0.00,VWS V14.01,2013-08-21 20:04:00,
2013-08-21 16:09:00,83.2,65.4,30.08,North,1,2.0,2.0,55,0.00,,CLR,0.00,VWS V14.01,2013-08-21 20:09:00,
2013-08-21 16:10:00,83.2,65.4,30.08,NNW,342,2.0,13.0,55,0.00,,BKN011,0.00,VWS V14.01,2013-08-21 20:10:00,
2013-08-21 16:14:00,83.0,65.2,30.08,South,190,5.0,13.0,55,0.00,,CLR,0.00,VWS V14.01,2013-08-21 20:14:00,
2013-08-21 16:19:00,83.1,65.3,30.08,SSE,165,4.0,13.0,55,0.00,,CLR,0.00,VWS V14.01,2013-08-21 20:19:00,
2013-08-21 16:20:00,83.1,65.3,30.08,SSE,165,4.0,13.0,55,0.00,,BKN011,0.00,VWS V14.01,2013-08-21 20:20:00,
2013-08-21 16:24:00,83.1,65.3,30.08,South,173,4.0,8.0,55,0.00,,CLR,0.00,VWS V14.01,2013-08-21 20:24:00,
2013-08-21 16:29:00,82.9,65.1,30.08,South,177,7.0,10.0,55,0.00,,CLR,0.00,VWS V14.01,2013-08-21 20:29:00,
2013-08-21 16:30:00,82.9,65.1,30.08,South,177,7.0,10.0,55,0.00,,BKN011,0.00,VWS V14.01,2013-08-21 20:30:00,
2013-08-21 16:34:00,82.7,64.9,30.08,SSW,200,5.0,10.0,55,0.00,,CLR,0.00,VWS V14.01,2013-08-21 20:34:00,
2013-08-21 16:39:00,82.4,65.1,30.08,SSW,201,7.0,7.0,56,0.00,,CLR,0.00,VWS V14.01,2013-08-21 20:39:00,
2013-08-21 16:40:00,82.4,65.1,30.08,South,184,6.0,12.0,56,0.00,,BKN011,0.00,VWS V14.01,2013-08-21 20:40:00,
2013-08-21 16:44:00,82.1,64.9,30.08,South,177,6.0,8.0,56,0.00,,CLR,0.00,VWS V14.01,2013-08-21 20:44:00,
2013-08-21 16:49:00,82.0,64.8,30.08,SW,228,3.0,10.0,56,0.00,,CLR,0.00,VWS V14.01,2013-08-21 20:49:00,
2013-08-21 16:50:00,82.0,64.8,30.08,SW,228,3.0,10.0,56,0.00,,BKN011,0.00,VWS V14.01,2013-08-21 20:50:00,
2013-08-21 16:54:00,82.1,64.9,30.08,SW,232,5.0,9.0,56,0.00,,CLR,0.00,VWS V14.01,2013-08-21 20:54:00,
2013-08-21 16:59:00,82.2,64.4,30.08,SW,225,7.0,10.0,55,0.00,,CLR,0.00,VWS V14.01,2013-08-21 20:59:00,
2013-08-21 17:00:00,82.2,64.4,30.08,SW,225,7.0,10.0,55,0.00,,BKN011,0.00,VWS V14.01,2013-08-21 21:00:00,
2013-08-21 17:04:00,82.1,64.3,30.07,WSW,256,7.0,10.0,55,0.00,,CLR,0.00,VWS V14.01,2013-08-21 21:04:00,
2013-08-21 17:09:00,82.1,64.9,30.07,WSW,238,3.0,10.0,56,0.00,,CLR,0.00,VWS V14.01,2013-08-21 21:09:00,
2013-08-21 17:10:00,82.1,64.9,30.07,West,262,3.0,10.0,56,0.00,,BKN011,0.00,VWS V14.01,2013-08-21 21:10:00,
2013-08-21 17:14:00,82.3,65.1,30.07,SW,219,4.0,7.0,56,0.00,,CLR,0.00,VWS V14.01,2013-08-21 21:14:00,
2013-08-21 17:19:00,81.6,64.9,30.07,West,274,6.0,13.0,57,0.00,,CLR,0.00,VWS V14.01,2013-08-21 21:19:00,
2013-08-21 17:20:00,81.6,64.9,30.07,West,274,6.0,13.0,57,0.00,,BKN011,0.00,VWS V14.01,2013-08-21 21:20:00,
2013-08-21 17:24:00,81.4,64.7,30.07,SSW,210,4.0,9.0,57,0.00,,CLR,0.00,VWS V14.01,2013-08-21 21:24:00,
2013-08-21 17:29:00,81.3,65.1,30.07,WNW,303,5.0,10.0,58,0.00,,CLR,0.00,VWS V14.01,2013-08-21 21:29:00,
2013-08-21 17:30:00,81.3,65.1,30.07,NW,314,6.0,10.0,58,0.00,,BKN011,0.00,VWS V14.01,2013-08-21 21:30:00,
2013-08-21 17:34:00,81.2,65.5,30.07,SSW,194,3.0,11.0,59,0.00,,CLR,0.00,VWS V14.01,2013-08-21 21:34:00,
2013-08-21 17:39:00,81.0,65.8,30.07,South,191,5.0,14.0,60,0.00,,CLR,0.00,VWS V14.01,2013-08-21 21:39:00,
2013-08-21 17:40:00,80.9,65.7,30.07,SW,216,5.0,14.0,60,0.00,,BKN011,0.00,VWS V14.01,2013-08-21 21:40:00,
2013-08-21 17:44:00,80.8,66.1,30.07,South,171,2.0,11.0,61,0.00,,CLR,0.00,VWS V14.01,2013-08-21 21:44:00,
2013-08-21 17:49:00,80.4,65.7,30.07,SW,217,9.0,11.0,61,0.00,,CLR,0.00,VWS V14.01,2013-08-21 21:49:00,
2013-08-21 17:50:00,80.4,65.7,30.07,SW,224,9.0,11.0,61,0.00,,BKN011,0.00,VWS V14.01,2013-08-21 21:50:00,
2013-08-21 17:54:00,80.1,65.9,30.06,SW,228,5.0,13.0,62,0.00,,CLR,0.00,VWS V14.01,2013-08-21 21:54:00,
2013-08-21 17:59:00,80.0,66.3,30.07,WSW,255,6.0,13.0,63,0.00,,CLR,0.00,VWS V14.01,2013-08-21 21:59:00,
2013-08-21 18:00:00,80.0,66.3,30.07,WSW,255,4.0,13.0,63,0.00,,BKN011,0.00,VWS V14.01,2013-08-21 22:00:00,
2013-08-21 18:04:00,79.9,66.2,30.06,SSE,162,8.0,11.0,63,0.00,,CLR,0.00,VWS V14.01,2013-08-21 22:04:00,
2013-08-21 18:09:00,79.8,66.1,30.06,West,261,3.0,11.0,63,0.00,,CLR,0.00,VWS V14.01,2013-08-21 22:09:00,
2013-08-21 18:10:00,79.8,66.1,30.06,WSW,238,5.0,11.0,63,0.00,,BKN011,0.00,VWS V14.01,2013-08-21 22:10:00,
2013-08-21 18:14:00,79.9,66.7,30.06,SSE,167,5.0,5.0,64,0.00,,CLR,0.00,VWS V14.01,2013-08-21 22:14:00,
2013-08-21 18:19:00,79.7,66.5,30.06,WSW,249,3.0,8.0,64,0.00,,CLR,0.00,VWS V14.01,2013-08-21 22:19:00,
2013-08-21 18:20:00,79.7,66.5,30.06,SW,226,7.0,8.0,64,0.00,,BKN011,0.00,VWS V14.01,2013-08-21 22:20:00,
2013-08-21 18:24:00,79.3,66.5,30.06,SW,217,7.0,9.0,65,0.00,,CLR,0.00,VWS V14.01,2013-08-21 22:24:00,
2013-08-21 18:29:00,79.2,66.9,30.06,South,186,9.0,9.0,66,0.00,,CLR,0.00,VWS V14.01,2013-08-21 22:29:00,
2013-08-21 18:30:00,79.2,66.9,30.06,South,172,7.0,9.0,66,0.00,,BKN011,0.00,VWS V14.01,2013-08-21 22:30:00,
2013-08-21 18:34:00,78.9,66.6,30.06,SW,229,1.0,9.0,66,0.00,,CLR,0.00,VWS V14.01,2013-08-21 22:34:00,
2013-08-21 18:39:00,78.9,66.6,30.06,SSW,194,7.0,10.0,66,0.00,,CLR,0.00,VWS V14.01,2013-08-21 22:39:00,
2013-08-21 18:40:00,78.9,66.6,30.06,South,181,5.0,10.0,66,0.00,,BKN011,0.00,VWS V14.01,2013-08-21 22:40:00,
2013-08-21 18:44:00,78.7,66.8,30.06,SW,232,2.0,8.0,67,0.00,,CLR,0.00,VWS V14.01,2013-08-21 22:44:00,
2013-08-21 18:49:00,78.5,67.1,30.06,WNW,295,0.0,8.0,68,0.00,,CLR,0.00,VWS V14.01,2013-08-21 22:49:00,
2013-08-21 18:50:00,78.5,67.1,30.06,WNW,302,1.0,8.0,68,0.00,,BKN011,0.00,VWS V14.01,2013-08-21 22:50:00,
2013-08-21 18:54:00,78.5,67.1,30.06,SSW,208,3.0,5.0,68,0.00,,CLR,0.00,VWS V14.01,2013-08-21 22:54:00,
2013-08-21 18:59:00,78.0,67.0,30.06,SSW,197,2.0,5.0,69,0.00,,CLR,0.00,VWS V14.01,2013-08-21 22:59:00,
2013-08-21 19:00:00,78.0,67.0,30.06,West,264,1.0,5.0,69,0.00,,BKN011,0.00,VWS V14.01,2013-08-21 23:00:00,
2013-08-21 19:04:00,77.8,67.2,30.06,SSW,208,2.0,4.0,70,0.00,,CLR,0.00,VWS V14.01,2013-08-21 23:04:00,
2013-08-21 19:09:00,77.5,67.4,30.06,SW,234,2.0,4.0,71,0.00,,CLR,0.00,VWS V14.01,2013-08-21 23:09:00,
2013-08-21 19:10:00,77.5,67.4,30.06,WSW,242,2.0,4.0,71,0.00,,BKN011,0.00,VWS V14.01,2013-08-21 23:10:00,
2013-08-21 19:14:00,77.1,67.4,30.06,WSW,242,4.0,4.0,72,0.00,,CLR,0.00,VWS V14.01,2013-08-21 23:14:00,
2013-08-21 19:19:00,76.6,67.3,30.06,SW,226,0.0,4.0,73,0.00,,CLR,0.00,VWS V14.01,2013-08-21 23:19:00,
2013-08-21 19:20:00,76.5,67.6,30.06,SW,227,0.0,4.0,74,0.00,,BKN011,0.00,VWS V14.01,2013-08-21 23:20:00,
2013-08-21 19:24:00,76.1,67.6,30.06,SSW,206,5.0,5.0,75,0.00,,CLR,0.00,VWS V14.01,2013-08-21 23:24:00,
2013-08-21 19:29:00,75.7,67.6,30.06,SW,236,3.0,6.0,76,0.00,,CLR,0.00,VWS V14.01,2013-08-21 23:29:00,
2013-08-21 19:30:00,75.7,67.6,30.06,SSE,152,3.0,6.0,76,0.00,,BKN011,0.00,VWS V14.01,2013-08-21 23:30:00,
2013-08-21 19:34:00,75.4,67.7,30.06,South,185,2.0,8.0,77,0.00,,CLR,0.00,VWS V14.01,2013-08-21 23:34:00,
2013-08-21 19:39:00,75.1,67.8,30.06,West,280,4.0,8.0,78,0.00,,CLR,0.00,VWS V14.01,2013-08-21 23:39:00,
2013-08-21 19:40:00,75.1,67.8,30.06,SSW,197,3.0,8.0,78,0.00,,BKN011,0.00,VWS V14.01,2013-08-21 23:40:00,
2013-08-21 19:44:00,74.8,67.9,30.06,WSW,256,0.0,6.0,79,0.00,,CLR,0.00,VWS V14.01,2013-08-21 23:44:00,
2013-08-21 19:49:00,74.6,67.7,30.06,West,267,1.0,6.0,79,0.00,,CLR,0.00,VWS V14.01,2013-08-21 23:49:00,
2013-08-21 19:50:00,74.6,67.7,30.06,West,264,0.0,6.0,79,0.00,,BKN011,0.00,VWS V14.01,2013-08-21 23:50:00,
2013-08-21 19:54:00,74.4,67.8,30.06,West,274,3.0,6.0,80,0.00,,CLR,0.00,VWS V14.01,2013-08-21 23:54:00,
2013-08-21 19:59:00,74.2,67.6,30.06,SW,225,0.0,7.0,80,0.00,,CLR,0.00,VWS V14.01,2013-08-21 23:59:00,
2013-08-21 20:00:00,74.2,67.6,30.06,SSE,147,1.0,7.0,80,0.00,,BKN011,0.00,VWS V14.01,2013-08-22 00:00:00,
2013-08-21 20:04:00,74.1,67.5,30.06,SW,228,1.0,7.0,80,0.00,,CLR,0.00,VWS V14.01,2013-08-22 00:04:00,
2013-08-21 20:09:00,73.9,67.3,30.06,SSW,203,1.0,7.0,80,0.00,,CLR,0.00,VWS V14.01,2013-08-22 00:09:00,
2013-08-21 20:10:00,73.9,67.3,30.06,SSW,201,1.0,7.0,80,0.00,,BKN011,0.00,VWS V14.01,2013-08-22 00:10:00,
2013-08-21 20:14:00,73.8,67.2,30.06,SSW,204,2.0,4.0,80,0.00,,CLR,0.00,VWS V14.01,2013-08-22 00:14:00,
2013-08-21 20:19:00,73.8,67.2,30.06,SW,218,2.0,5.0,80,0.00,,CLR,0.00,VWS V14.01,2013-08-22 00:19:00,
2013-08-21 20:20:00,73.8,67.2,30.06,SSW,208,2.0,5.0,80,0.00,,BKN011,0.00,VWS V14.01,2013-08-22 00:20:00,
2013-08-21 20:24:00,73.8,67.2,30.07,West,263,4.0,5.0,80,0.00,,CLR,0.00,VWS V14.01,2013-08-22 00:24:00,
2013-08-21 20:29:00,73.7,67.2,30.07,SSW,205,0.0,8.0,80,0.00,,CLR,0.00,VWS V14.01,2013-08-22 00:29:00,
2013-08-21 20:30:00,73.8,67.2,30.07,WNW,295,0.0,8.0,80,0.00,,BKN011,0.00,VWS V14.01,2013-08-22 00:30:00,
2013-08-21 20:34:00,73.7,67.2,30.07,WNW,283,0.0,4.0,80,0.00,,CLR,0.00,VWS V14.01,2013-08-22 00:34:00,
2013-08-21 20:39:00,73.6,67.1,30.07,NNW,333,0.0,5.0,80,0.00,,CLR,0.00,VWS V14.01,2013-08-22 00:39:00,
2013-08-21 20:40:00,73.6,67.1,30.07,West,266,1.0,5.0,80,0.00,,BKN011,0.00,VWS V14.01,2013-08-22 00:40:00,
2013-08-21 20:44:00,73.5,67.0,30.07,WNW,283,3.0,3.0,80,0.00,,CLR,0.00,VWS V14.01,2013-08-22 00:44:00,
2013-08-21 20:49:00,73.5,66.6,30.07,SW,225,2.0,4.0,79,0.00,,CLR,0.00,VWS V14.01,2013-08-22 00:49:00,
2013-08-21 20:50:00,73.5,66.6,30.07,SW,236,2.0,4.0,79,0.00,,BKN011,0.00,VWS V14.01,2013-08-22 00:50:00,
2013-08-21 20:54:00,73.4,66.5,30.07,SW,215,1.0,4.0,79,0.00,,CLR,0.00,VWS V14.01,2013-08-22 00:54:00,
2013-08-21 20:59:00,73.3,66.4,30.07,SW,217,1.0,4.0,79,0.00,,CLR,0.00,VWS V14.01,2013-08-22 00:59:00,
2013-08-21 21:00:00,73.3,66.4,30.07,SW,217,0.0,4.0,79,0.00,,BKN011,0.00,VWS V14.01,2013-08-22 01:00:00,
2013-08-21 21:04:00,73.2,66.3,30.07,West,259,1.0,5.0,79,0.00,,CLR,0.00,VWS V14.01,2013-08-22 01:04:00,
2013-08-21 21:09:00,73.2,66.3,30.07,WSW,245,0.0,5.0,79,0.00,,CLR,0.00,VWS V14.01,2013-08-22 01:09:00,
2013-08-21 21:10:00,73.2,66.3,30.07,WSW,245,0.0,5.0,79,0.00,,BKN011,0.00,VWS V14.01,2013-08-22 01:10:00,
2013-08-21 21:14:00,73.1,66.2,30.07,SW,225,0.0,5.0,79,0.00,,CLR,0.00,VWS V14.01,2013-08-22 01:14:00,
2013-08-21 21:19:00,73.0,66.1,30.07,SW,232,2.0,5.0,79,0.00,,CLR,0.00,VWS V14.01,2013-08-22 01:19:00,
2013-08-21 21:20:00,73.0,66.1,30.07,West,270,1.0,5.0,79,0.00,,BKN011,0.00,VWS V14.01,2013-08-22 01:20:00,
2013-08-21 21:24:00,72.9,66.0,30.07,SW,220,1.0,2.0,79,0.00,,CLR,0.00,VWS V14.01,2013-08-22 01:24:00,
2013-08-21 21:29:00,72.8,65.9,30.07,SW,214,0.0,2.0,79,0.00,,CLR,0.00,VWS V14.01,2013-08-22 01:29:00,
2013-08-21 21:30:00,72.7,65.8,30.07,SW,224,2.0,2.0,79,0.00,,BKN011,0.00,VWS V14.01,2013-08-22 01:30:00,
2013-08-21 21:34:00,72.6,66.1,30.07,SW,236,0.0,2.0,80,0.00,,CLR,0.00,VWS V14.01,2013-08-22 01:34:00,
2013-08-21 21:39:00,72.5,66.0,30.07,South,173,1.0,4.0,80,0.00,,CLR,0.00,VWS V14.01,2013-08-22 01:39:00,
2013-08-21 21:40:00,72.5,66.0,30.07,South,179,3.0,4.0,80,0.00,,BKN011,0.00,VWS V14.01,2013-08-22 01:40:00,
2013-08-21 21:44:00,72.3,65.8,30.07,SSW,197,1.0,3.0,80,0.00,,CLR,0.00,VWS V14.01,2013-08-22 01:44:00,
2013-08-21 21:49:00,72.2,66.1,30.07,SSW,208,1.0,3.0,81,0.00,,CLR,0.00,VWS V14.01,2013-08-22 01:49:00,
2013-08-21 21:50:00,72.2,66.1,30.07,SW,234,0.0,3.0,81,0.00,,BKN011,0.00,VWS V14.01,2013-08-22 01:50:00,
2013-08-21 21:54:00,72.0,65.9,30.07,SSW,198,0.0,3.0,81,0.00,,CLR,0.00,VWS V14.01,2013-08-22 01:54:00,
2013-08-21 21:59:00,71.9,65.8,30.07,SSW,208,3.0,4.0,81,0.00,,CLR,0.00,VWS V14.01,2013-08-22 01:59:00,
2013-08-21 22:00:00,71.9,65.8,30.07,SW,229,1.0,4.0,81,0.00,,BKN011,0.00,VWS V14.01,2013-08-22 02:00:00,
2013-08-21 22:04:00,71.8,65.7,30.07,SSE,160,0.0,3.0,81,0.00,,CLR,0.00,VWS V14.01,2013-08-22 02:04:00,
2013-08-21 22:09:00,71.6,65.8,30.06,SSE,160,0.0,3.0,82,0.00,,CLR,0.00,VWS V14.01,2013-08-22 02:09:00,
2013-08-21 22:10:00,71.6,65.8,30.06,SW,231,1.0,3.0,82,0.00,,BKN011,0.00,VWS V14.01,2013-08-22 02:10:00,
2013-08-21 22:14:00,71.5,65.7,30.06,WSW,256,0.0,2.0,82,0.00,,CLR,0.00,VWS V14.01,2013-08-22 02:14:00,
2013-08-21 22:19:00,71.5,65.7,30.06,WSW,257,2.0,4.0,82,0.00,,CLR,0.00,VWS V14.01,2013-08-22 02:19:00,
2013-08-21 22:20:00,71.5,65.7,30.06,West,264,2.0,4.0,82,0.00,,BKN011,0.00,VWS V14.01,2013-08-22 02:20:00,
2013-08-21 22:24:00,71.4,65.6,30.06,SW,224,1.0,5.0,82,0.00,,CLR,0.00,VWS V14.01,2013-08-22 02:24:00,
2013-08-21 22:29:00,71.4,65.6,30.06,WSW,239,0.0,8.0,82,0.00,,CLR,0.00,VWS V14.01,2013-08-22 02:29:00,
2013-08-21 22:30:00,71.4,65.6,30.06,SE,134,0.0,8.0,82,0.00,,BKN011,0.00,VWS V14.01,2013-08-22 02:30:00,
2013-08-21 22:34:00,71.4,65.6,30.06,SW,232,0.0,3.0,82,0.00,,CLR,0.00,VWS V14.01,2013-08-22 02:34:00,
2013-08-21 22:39:00,71.3,65.5,30.06,SSW,204,4.0,6.0,82,0.00,,CLR,0.00,VWS V14.01,2013-08-22 02:39:00,
2013-08-21 22:40:00,71.3,65.9,30.06,South,181,2.0,6.0,83,0.00,,BKN011,0.00,VWS V14.01,2013-08-22 02:40:00,
2013-08-21 22:44:00,71.3,65.9,30.06,WSW,243,0.0,3.0,83,0.00,,CLR,0.00,VWS V14.01,2013-08-22 02:44:00,
2013-08-21 22:49:00,71.2,65.8,30.06,WSW,253,0.0,5.0,83,0.00,,CLR,0.00,VWS V14.01,2013-08-22 02:49:00,
2013-08-21 22:50:00,71.2,65.8,30.06,WSW,253,0.0,5.0,83,0.00,,BKN011,0.00,VWS V14.01,2013-08-22 02:50:00,
2013-08-21 22:54:00,71.1,66.0,30.06,South,191,1.0,4.0,84,0.00,,CLR,0.00,VWS V14.01,2013-08-22 02:54:00,
2013-08-21 22:59:00,71.1,66.0,30.06,WSW,249,2.0,5.0,84,0.00,,CLR,0.00,VWS V14.01,2013-08-22 02:59:00,
2013-08-21 23:00:00,71.1,66.0,30.06,West,267,2.0,5.0,84,0.00,,BKN011,0.00,VWS V14.01,2013-08-22 03:00:00,
2013-08-21 23:04:00,71.0,65.9,30.07,WSW,253,0.0,5.0,84,0.00,,CLR,0.00,VWS V14.01,2013-08-22 03:04:00,
2013-08-21 23:09:00,70.9,65.8,30.06,West,262,2.0,5.0,84,0.00,,CLR,0.00,VWS V14.01,2013-08-22 03:09:00,
2013-08-21 23:10:00,70.9,65.8,30.06,WSW,257,0.0,5.0,84,0.00,,BKN011,0.00,VWS V14.01,2013-08-22 03:10:00,
2013-08-21 23:14:00,70.9,65.8,30.06,WSW,246,4.0,4.0,84,0.00,,CLR,0.00,VWS V14.01,2013-08-22 03:14:00,
2013-08-21 23:19:00,70.9,65.8,30.06,West,262,0.0,4.0,84,0.00,,CLR,0.00,VWS V14.01,2013-08-22 03:19:00,
2013-08-21 23:20:00,70.9,65.8,30.06,West,263,0.0,4.0,84,0.00,,BKN011,0.00,VWS V14.01,2013-08-22 03:20:00,
2013-08-21 23:24:00,70.9,65.5,30.06,SSW,197,3.0,3.0,83,0.00,,CLR,0.00,VWS V14.01,2013-08-22 03:24:00,
2013-08-21 23:29:00,70.8,65.4,30.06,WSW,243,2.0,4.0,83,0.00,,CLR,0.00,VWS V14.01,2013-08-22 03:29:00,
2013-08-21 23:30:00,70.8,65.4,30.06,WSW,246,2.0,4.0,83,0.00,,BKN011,0.00,VWS V14.01,2013-08-22 03:30:00,
2013-08-21 23:34:00,70.8,65.4,30.06,West,262,0.0,2.0,83,0.00,,CLR,0.00,VWS V14.01,2013-08-22 03:34:00,
2013-08-21 23:39:00,70.8,65.4,30.06,West,267,1.0,5.0,83,0.00,,CLR,0.00,VWS V14.01,2013-08-22 03:39:00,
2013-08-21 23:40:00,70.8,65.4,30.06,SSE,156,1.0,5.0,83,0.00,,BKN011,0.00,VWS V14.01,2013-08-22 03:40:00,
2013-08-21 23:44:00,70.8,65.4,30.05,West,263,0.0,5.0,83,0.00,,CLR,0.00,VWS V14.01,2013-08-22 03:44:00,
2013-08-21 23:49:00,70.7,65.3,30.05,SW,229,1.0,5.0,83,0.00,,CLR,0.00,VWS V14.01,2013-08-22 03:49:00,
2013-08-21 23:50:00,70.7,65.3,30.05,SW,232,0.0,5.0,83,0.00,,BKN011,0.00,VWS V14.01,2013-08-22 03:50:00,
2013-08-21 23:54:00,70.6,65.5,30.05,West,277,1.0,4.0,84,0.00,,CLR,0.00,VWS V14.01,2013-08-22 03:54:00,
2013-08-21 23:59:00,70.5,65.4,30.05,WSW,239,0.0,4.0,84,0.00,,CLR,0.00,VWS V14.01,2013-08-22 03:59:00,